Starlink 32845

operational
NORAD ID: 62815 Int'l Des: 2025-018 Owner: SPXS Country: US Constellation: starlink
LEOCIRCULAR

Starlink 32845について

説明を読み込み中...

リアルタイム位置

3D地球を読み込み中...

次回通過

高度履歴

Altitude vs Time

uPlot chart will show altitude changes over time

軌道要素

1 62815U 25018K 26034.60922539 .00033467 00000-0 11370-2 0 9996
2 62815 53.1574 107.6792 0001064 101.6582 258.4538 15.30201110 57950
Epoch: Feb 3, 2026 • Age: 11 hours

現在のステータス

高度 481.0 km
速度 7.63 km/s
衛星直下点 53.16°N, 25.8°E
打ち上げ日 Jan 24, 2025
運用期間 1 years
タイプ internet

技術仕様

分類 Payload
質量 730.00 kg
乾燥質量 700.00 kg
総質量 730.00 kg
長さ 0.30 m
直径 4.10 m
スパン 29.00 m
形状 Box + pan
製造者 SPXS
バスタイプ Starlink V2M
フェーズステータス In Orbit
所有者/国 SPXS/US

大規模コンステレーション

Loading constellations...